Tracking 27122 objects as of 25-Mar-2023
HD Live streaming from Space Station
objects crossing your sky now

SYRACUSE 4A

Track SYRACUSE 4A now!


NORAD ID: 49333
Int'l Code: 2021-095B
Perigee: 35,787.3 km
Apogee: 35,800.7 km
Inclination: 0.0 °
Period: 1,436.1 minutes
Semi major axis: 42165 km
RCS: Unknown
Launch date: October 24, 2021
Source: France (FR)
Launch site: FRENCH GUIANA (FRGUI)
Your satellite tracking list
Your tracking list is empty




NASA's NSSDC Master Catalog

Two Line Element Set (TLE):
1 49333U 21095B   23082.17271675  .00000121  00000-0  00000-0 0  9994
2 49333   0.0192 174.9697 0001595 177.9243 295.1848  1.00270786  6129
Source of the keplerian elements: AFSPC